Time,TemperatureF,DewpointF,PressureIn,WindDirection,WindDirectionDegrees,WindSpeedMPH,WindSpeedGustMPH,Humidity,HourlyPrecipIn,Conditions,Clouds,dailyrainin,SoftwareType,DateUTC
2013-04-04 00:00:00,25.7,16.6,30.30,SSW,196,0.0,0.0,68,0.00,,---,0.00,VWS V14.01,2013-04-04 04:00:00,
2013-04-04 00:05:00,25.6,16.9,30.30,South,190,0.0,0.0,69,0.00,,---,0.00,VWS V14.01,2013-04-04 04:05:00,
2013-04-04 00:10:00,25.4,16.7,30.29,South,182,0.0,0.0,69,0.00,,---,0.00,VWS V14.01,2013-04-04 04:10:00,
2013-04-04 00:15:00,25.3,16.9,30.29,SSW,202,0.0,0.0,70,0.00,,---,0.00,VWS V14.01,2013-04-04 04:15:00,
2013-04-04 00:20:00,25.3,17.2,30.29,SSW,192,0.0,0.0,71,0.00,,---,0.00,VWS V14.01,2013-04-04 04:20:00,
2013-04-04 00:25:00,25.4,17.3,30.28,SSW,209,0.0,0.0,71,0.00,,---,0.00,VWS V14.01,2013-04-04 04:25:00,
2013-04-04 00:30:00,25.7,17.3,30.28,SSW,194,0.0,0.0,70,0.00,,---,0.00,VWS V14.01,2013-04-04 04:30:00,
2013-04-04 00:35:00,26.0,17.2,30.28,South,189,0.0,0.0,69,0.00,,---,0.00,VWS V14.01,2013-04-04 04:35:00,
2013-04-04 00:40:00,26.0,17.2,30.28,SSW,205,0.0,0.0,69,0.00,,---,0.00,VWS V14.01,2013-04-04 04:40:00,
2013-04-04 00:45:00,26.1,17.3,30.27,SW,223,0.0,0.0,69,0.00,,---,0.00,VWS V14.01,2013-04-04 04:45:00,
2013-04-04 00:50:00,26.3,17.5,30.27,SSW,200,0.0,0.0,69,0.00,,---,0.00,VWS V14.01,2013-04-04 04:50:00,
2013-04-04 00:55:00,26.4,17.3,30.27,SSW,198,0.0,0.0,68,0.00,,---,0.00,VWS V14.01,2013-04-04 04:55:00,
2013-04-04 01:00:00,26.4,17.3,30.27,SSW,198,0.0,0.0,68,0.00,,---,0.00,VWS V14.01,2013-04-04 05:00:00,
2013-04-04 01:05:00,26.4,17.3,30.26,South,185,0.0,0.0,68,0.00,,---,0.00,VWS V14.01,2013-04-04 05:05:00,
2013-04-04 01:10:00,26.4,17.3,30.26,SSW,213,0.0,0.0,68,0.00,,---,0.00,VWS V14.01,2013-04-04 05:10:00,
2013-04-04 01:15:00,26.3,16.9,30.26,South,187,0.0,0.0,67,0.00,,---,0.00,VWS V14.01,2013-04-04 05:15:00,
2013-04-04 01:20:00,26.1,17.0,30.26,SSE,159,0.0,0.0,68,0.00,,---,0.00,VWS V14.01,2013-04-04 05:20:00,
2013-04-04 01:25:00,26.0,16.6,30.26,SW,231,0.0,0.0,67,0.00,,---,0.00,VWS V14.01,2013-04-04 05:25:00,
2013-04-04 01:30:00,26.0,16.6,30.26,SSW,202,0.0,0.0,67,0.00,,---,0.00,VWS V14.01,2013-04-04 05:30:00,
2013-04-04 01:35:00,26.1,16.3,30.25,South,188,0.0,0.0,66,0.00,,---,0.00,VWS V14.01,2013-04-04 05:35:00,
2013-04-04 01:40:00,26.1,16.3,30.25,SSW,196,0.0,0.0,66,0.00,,---,0.00,VWS V14.01,2013-04-04 05:40:00,
2013-04-04 01:45:00,26.0,15.9,30.25,South,180,0.0,0.0,65,0.00,,---,0.00,VWS V14.01,2013-04-04 05:45:00,
2013-04-04 01:50:00,26.1,15.6,30.25,SSW,211,0.0,0.0,64,0.00,,---,0.00,VWS V14.01,2013-04-04 05:50:00,
2013-04-04 01:55:00,26.4,15.2,30.25,SSW,202,0.0,0.0,62,0.00,,---,0.00,VWS V14.01,2013-04-04 05:55:00,
2013-04-04 02:00:00,26.6,15.4,30.25,SSW,204,0.0,0.0,62,0.00,,---,0.00,VWS V14.01,2013-04-04 06:00:00,
2013-04-04 02:05:00,26.6,15.0,30.25,SSW,198,0.0,0.0,61,0.00,,---,0.00,VWS V14.01,2013-04-04 06:05:00,
2013-04-04 02:10:00,26.7,14.3,30.25,SSW,208,0.0,0.0,59,0.00,,---,0.00,VWS V14.01,2013-04-04 06:10:00,
2013-04-04 02:15:00,26.9,14.1,30.24,SSW,194,0.0,0.0,58,0.00,,---,0.00,VWS V14.01,2013-04-04 06:15:00,
2013-04-04 02:20:00,27.2,14.0,30.24,SSW,200,0.0,0.0,57,0.00,,---,0.00,VWS V14.01,2013-04-04 06:20:00,
2013-04-04 02:25:00,27.3,13.3,30.24,SW,220,0.0,0.0,55,0.00,,---,0.00,VWS V14.01,2013-04-04 06:25:00,
2013-04-04 02:30:00,27.8,13.8,30.23,SSW,193,0.0,0.0,55,0.00,,---,0.00,VWS V14.01,2013-04-04 06:30:00,
2013-04-04 02:35:00,27.9,13.4,30.23,SSW,207,0.0,0.0,54,0.00,,---,0.00,VWS V14.01,2013-04-04 06:35:00,
2013-04-04 02:40:00,28.1,13.6,30.23,SSW,202,0.0,0.0,54,0.00,,---,0.00,VWS V14.01,2013-04-04 06:40:00,
2013-04-04 02:45:00,28.2,13.7,30.23,South,180,0.0,0.0,54,0.00,,---,0.00,VWS V14.01,2013-04-04 06:45:00,
2013-04-04 02:50:00,28.2,13.7,30.22,SW,226,0.0,0.0,54,0.00,,---,0.00,VWS V14.01,2013-04-04 06:50:00,
2013-04-04 02:55:00,28.2,13.7,30.22,SW,215,0.0,0.0,54,0.00,,---,0.00,VWS V14.01,2013-04-04 06:55:00,
2013-04-04 03:00:00,28.2,13.3,30.22,SSW,198,0.0,0.0,53,0.00,,---,0.00,VWS V14.01,2013-04-04 07:00:00,
2013-04-04 03:05:00,28.4,13.5,30.21,South,191,0.0,0.0,53,0.00,,---,0.00,VWS V14.01,2013-04-04 07:05:00,
2013-04-04 03:10:00,28.2,13.3,30.21,SSW,204,0.0,0.0,53,0.00,,---,0.00,VWS V14.01,2013-04-04 07:10:00,
2013-04-04 03:15:00,28.2,13.7,30.21,SSW,207,0.0,0.0,54,0.00,,---,0.00,VWS V14.01,2013-04-04 07:15:00,
2013-04-04 03:20:00,28.1,13.6,30.20,SSW,205,0.0,0.0,54,0.00,,---,0.00,VWS V14.01,2013-04-04 07:20:00,
2013-04-04 03:25:00,27.9,13.4,30.20,SSE,163,0.0,0.0,54,0.00,,---,0.00,VWS V14.01,2013-04-04 07:25:00,
2013-04-04 03:30:00,27.9,13.4,30.20,SW,214,0.0,0.0,54,0.00,,---,0.00,VWS V14.01,2013-04-04 07:30:00,
2013-04-04 03:35:00,27.9,13.4,30.20,SSW,200,0.0,0.0,54,0.00,,---,0.00,VWS V14.01,2013-04-04 07:35:00,
2013-04-04 03:40:00,27.9,13.4,30.20,SSW,200,0.0,0.0,54,0.00,,---,0.00,VWS V14.01,2013-04-04 07:40:00,
2013-04-04 03:45:00,27.9,13.0,30.19,SW,217,0.0,0.0,53,0.00,,---,0.00,VWS V14.01,2013-04-04 07:45:00,
2013-04-04 03:50:00,27.9,13.0,30.19,SSW,205,0.0,0.0,53,0.00,,---,0.00,VWS V14.01,2013-04-04 07:50:00,
2013-04-04 03:55:00,27.9,12.6,30.19,South,188,0.0,0.0,52,0.00,,---,0.00,VWS V14.01,2013-04-04 07:55:00,
2013-04-04 04:00:00,27.9,12.6,30.18,SSW,197,0.0,0.0,52,0.00,,---,0.00,VWS V14.01,2013-04-04 08:00:00,
2013-04-04 04:05:00,27.8,12.0,30.18,SSW,199,0.0,0.0,51,0.00,,---,0.00,VWS V14.01,2013-04-04 08:05:00,
2013-04-04 04:10:00,27.9,11.7,30.18,SSW,204,0.0,0.0,50,0.00,,---,0.00,VWS V14.01,2013-04-04 08:10:00,
2013-04-04 04:15:00,28.1,11.4,30.18,SSW,200,0.0,0.0,49,0.00,,---,0.00,VWS V14.01,2013-04-04 08:15:00,
2013-04-04 04:21:00,28.1,10.9,30.18,SW,229,0.0,0.0,48,0.00,,---,0.00,VWS V14.01,2013-04-04 08:21:00,
2013-04-04 04:26:00,28.2,11.0,30.18,SSW,209,0.0,0.0,48,0.00,,---,0.00,VWS V14.01,2013-04-04 08:26:00,
2013-04-04 04:31:00,28.4,10.8,30.17,SW,230,0.0,0.0,47,0.00,,---,0.00,VWS V14.01,2013-04-04 08:31:00,
2013-04-04 04:36:00,28.5,10.4,30.18,SSW,208,0.0,0.0,46,0.00,,---,0.00,VWS V14.01,2013-04-04 08:36:00,
2013-04-04 04:41:00,28.7,10.1,30.17,SSW,203,0.0,0.0,45,0.00,,---,0.00,VWS V14.01,2013-04-04 08:41:00,
2013-04-04 04:46:00,29.1,9.9,30.17,SSW,203,0.0,0.0,44,0.00,,---,0.00,VWS V14.01,2013-04-04 08:46:00,
2013-04-04 04:51:00,29.4,9.7,30.17,SSW,209,0.0,0.0,43,0.00,,---,0.00,VWS V14.01,2013-04-04 08:51:00,
2013-04-04 04:56:00,29.4,9.7,30.17,South,169,0.0,0.0,43,0.00,,---,0.00,VWS V14.01,2013-04-04 08:56:00,
2013-04-04 05:02:00,29.4,9.7,30.17,SW,214,0.0,0.0,43,0.00,,---,0.00,VWS V14.01,2013-04-04 09:02:00,
2013-04-04 05:07:00,29.4,9.7,30.17,SW,218,0.0,0.0,43,0.00,,---,0.00,VWS V14.01,2013-04-04 09:07:00,
2013-04-04 05:12:00,29.5,9.8,30.16,South,188,0.0,0.0,43,0.00,,---,0.00,VWS V14.01,2013-04-04 09:12:00,
2013-04-04 05:17:00,29.4,9.2,30.17,SSW,212,0.0,0.0,42,0.00,,---,0.00,VWS V14.01,2013-04-04 09:17:00,
2013-04-04 05:22:00,29.5,9.2,30.17,SSW,212,0.0,0.0,42,0.00,,---,0.00,VWS V14.01,2013-04-04 09:22:00,
2013-04-04 05:27:00,29.7,10.0,30.16,SSW,203,0.0,0.0,43,0.00,,---,0.00,VWS V14.01,2013-04-04 09:27:00,
2013-04-04 05:32:00,29.7,9.4,30.16,SW,229,0.0,0.0,42,0.00,,---,0.00,VWS V14.01,2013-04-04 09:32:00,
2013-04-04 05:37:00,29.8,9.0,30.15,SW,226,0.0,0.0,41,0.00,,---,0.00,VWS V14.01,2013-04-04 09:37:00,
2013-04-04 05:42:00,29.8,9.5,30.15,SSW,195,0.0,0.0,42,0.00,,---,0.00,VWS V14.01,2013-04-04 09:42:00,
2013-04-04 05:47:00,29.8,9.0,30.15,SW,225,0.0,0.0,41,0.00,,---,0.00,VWS V14.01,2013-04-04 09:47:00,
2013-04-04 05:52:00,29.8,9.0,30.15,South,171,0.0,0.0,41,0.00,,---,0.00,VWS V14.01,2013-04-04 09:52:00,
2013-04-04 05:57:00,29.8,9.0,30.15,SSW,203,0.0,0.0,41,0.00,,---,0.00,VWS V14.01,2013-04-04 09:57:00,
2013-04-04 06:02:00,29.8,9.0,30.15,SW,219,0.0,0.0,41,0.00,,---,0.00,VWS V14.01,2013-04-04 10:02:00,
2013-04-04 06:07:00,29.7,8.9,30.15,WSW,242,0.0,0.0,41,0.00,,---,0.00,VWS V14.01,2013-04-04 10:07:00,
2013-04-04 06:12:00,29.7,8.9,30.15,SSW,202,0.0,0.0,41,0.00,,---,0.00,VWS V14.01,2013-04-04 10:12:00,
2013-04-04 06:17:00,29.7,8.9,30.15,SSW,206,0.0,0.0,41,0.00,,---,0.00,VWS V14.01,2013-04-04 10:17:00,
2013-04-04 06:22:00,29.8,9.0,30.15,SW,214,0.0,0.0,41,0.00,,---,0.00,VWS V14.01,2013-04-04 10:22:00,
2013-04-04 06:27:00,30.0,9.2,30.14,SSW,209,0.0,0.0,41,0.00,,---,0.00,VWS V14.01,2013-04-04 10:27:00,
2013-04-04 06:32:00,30.0,8.6,30.14,South,173,0.0,0.0,40,0.00,,---,0.00,VWS V14.01,2013-04-04 10:32:00,
2013-04-04 06:37:00,30.0,8.6,30.14,South,190,0.0,0.0,40,0.00,,---,0.00,VWS V14.01,2013-04-04 10:37:00,
2013-04-04 06:42:00,30.0,8.6,30.13,SW,226,0.0,0.0,40,0.00,,---,0.00,VWS V14.01,2013-04-04 10:42:00,
2013-04-04 06:47:00,30.0,8.1,30.13,SSW,192,0.0,0.0,39,0.00,,---,0.00,VWS V14.01,2013-04-04 10:47:00,
2013-04-04 06:52:00,30.1,8.1,30.13,SSW,205,0.0,0.0,39,0.00,,---,0.00,VWS V14.01,2013-04-04 10:52:00,
2013-04-04 06:57:00,30.1,8.7,30.13,South,183,0.0,0.0,40,0.00,,---,0.00,VWS V14.01,2013-04-04 10:57:00,
2013-04-04 07:02:00,30.1,7.6,30.13,SSW,204,0.0,0.0,38,0.00,,---,0.00,VWS V14.01,2013-04-04 11:02:00,
2013-04-04 07:07:00,30.3,8.3,30.12,SSW,209,0.0,0.0,39,0.00,,---,0.00,VWS V14.01,2013-04-04 11:07:00,
2013-04-04 07:12:00,30.4,7.8,30.12,SSW,213,0.0,0.0,38,0.00,,---,0.00,VWS V14.01,2013-04-04 11:12:00,
2013-04-04 07:17:00,30.6,8.0,30.11,SSW,196,0.0,0.0,38,0.00,,---,0.00,VWS V14.01,2013-04-04 11:17:00,
2013-04-04 07:22:00,30.9,7.7,30.11,SSW,202,0.0,0.0,37,0.00,,---,0.00,VWS V14.01,2013-04-04 11:22:00,
2013-04-04 07:27:00,30.9,7.1,30.11,SSW,202,0.0,0.0,36,0.00,,---,0.00,VWS V14.01,2013-04-04 11:27:00,
2013-04-04 07:32:00,31.0,8.4,30.11,SW,225,0.0,0.0,38,0.00,,---,0.00,VWS V14.01,2013-04-04 11:32:00,
2013-04-04 07:37:00,31.2,7.4,30.11,SSW,207,0.0,0.0,36,0.00,,---,0.00,VWS V14.01,2013-04-04 11:37:00,
2013-04-04 07:42:00,31.3,8.1,30.11,SSW,205,0.0,0.0,37,0.00,,---,0.00,VWS V14.01,2013-04-04 11:42:00,
2013-04-04 07:48:00,31.5,8.2,30.10,SW,217,0.0,0.0,37,0.00,,---,0.00,VWS V14.01,2013-04-04 11:48:00,
2013-04-04 07:53:00,31.6,8.3,30.10,SW,231,0.0,0.0,37,0.00,,---,0.00,VWS V14.01,2013-04-04 11:53:00,
2013-04-04 07:58:00,31.9,8.6,30.10,SW,219,0.0,0.0,37,0.00,,---,0.00,VWS V14.01,2013-04-04 11:58:00,
2013-04-04 08:03:00,32.2,8.9,30.10,SSW,195,0.0,0.0,37,0.00,,---,0.00,VWS V14.01,2013-04-04 12:03:00,
2013-04-04 08:08:00,32.4,9.1,30.10,SW,229,0.0,0.0,37,0.00,,---,0.00,VWS V14.01,2013-04-04 12:08:00,
2013-04-04 08:13:00,32.7,10.5,30.10,South,179,0.0,0.0,39,0.00,,---,0.00,VWS V14.01,2013-04-04 12:13:00,
2013-04-04 08:18:00,32.8,10.0,30.10,South,186,0.0,0.0,38,0.00,,---,0.00,VWS V14.01,2013-04-04 12:18:00,
2013-04-04 08:23:00,33.1,10.9,30.10,SW,223,0.0,0.0,39,0.00,,---,0.00,VWS V14.01,2013-04-04 12:23:00,
2013-04-04 08:28:00,33.4,11.7,30.10,SW,224,0.0,0.0,40,0.00,,---,0.00,VWS V14.01,2013-04-04 12:28:00,
2013-04-04 08:33:00,33.8,12.1,30.09,SSW,211,0.0,0.0,40,0.00,,---,0.00,VWS V14.01,2013-04-04 12:33:00,
2013-04-04 08:38:00,34.3,12.5,30.09,SW,229,0.0,0.0,40,0.00,,---,0.00,VWS V14.01,2013-04-04 12:38:00,
2013-04-04 08:43:00,34.6,12.8,30.09,WSW,246,0.0,0.0,40,0.00,,---,0.00,VWS V14.01,2013-04-04 12:43:00,
2013-04-04 08:48:00,35.0,12.6,30.09,WSW,257,0.0,0.0,39,0.00,,---,0.00,VWS V14.01,2013-04-04 12:48:00,
2013-04-04 08:53:00,35.5,13.6,30.09,SSW,198,0.0,0.0,40,0.00,,---,0.00,VWS V14.01,2013-04-04 12:53:00,
2013-04-04 08:58:00,35.8,13.3,30.09,SW,223,0.0,0.0,39,0.00,,---,0.00,VWS V14.01,2013-04-04 12:58:00,
2013-04-04 09:03:00,36.2,13.1,30.08,SW,233,0.0,0.0,38,0.00,,---,0.00,VWS V14.01,2013-04-04 13:03:00,
2013-04-04 09:08:00,36.2,13.6,30.08,WSW,258,0.0,0.0,39,0.00,,---,0.00,VWS V14.01,2013-04-04 13:08:00,
2013-04-04 09:13:00,36.2,14.2,30.08,WNW,284,0.0,0.0,40,0.00,,---,0.00,VWS V14.01,2013-04-04 13:13:00,
2013-04-04 09:18:00,36.2,14.8,30.08,SSW,202,0.0,0.0,41,0.00,,---,0.00,VWS V14.01,2013-04-04 13:18:00,
2013-04-04 09:23:00,36.3,14.9,30.08,WSW,241,0.0,0.0,41,0.00,,---,0.00,VWS V14.01,2013-04-04 13:23:00,
2013-04-04 09:28:00,36.5,15.1,30.07,WSW,252,0.0,0.0,41,0.00,,---,0.00,VWS V14.01,2013-04-04 13:28:00,
2013-04-04 09:33:00,36.9,14.9,30.07,SW,225,0.0,0.0,40,0.00,,---,0.00,VWS V14.01,2013-04-04 13:33:00,
2013-04-04 09:38:00,37.5,16.0,30.06,WSW,252,0.0,0.0,41,0.00,,---,0.00,VWS V14.01,2013-04-04 13:38:00,
2013-04-04 09:43:00,37.6,16.0,30.06,SSW,213,0.0,0.0,41,0.00,,---,0.00,VWS V14.01,2013-04-04 13:43:00,
2013-04-04 09:48:00,37.9,16.3,30.05,West,267,0.0,0.0,41,0.00,,---,0.00,VWS V14.01,2013-04-04 13:48:00,
2013-04-04 09:53:00,38.0,17.0,30.05,SW,216,0.0,0.0,42,0.00,,---,0.00,VWS V14.01,2013-04-04 13:53:00,
2013-04-04 09:59:00,38.9,17.2,30.04,West,261,0.0,0.0,41,0.00,,---,0.00,VWS V14.01,2013-04-04 13:59:00,
2013-04-04 10:04:00,39.3,18.7,30.04,SW,231,0.0,0.0,43,0.00,,---,0.00,VWS V14.01,2013-04-04 14:04:00,
2013-04-04 10:09:00,40.1,18.3,30.03,WSW,257,0.0,0.0,41,0.00,,---,0.00,VWS V14.01,2013-04-04 14:09:00,
2013-04-04 10:14:00,40.3,19.6,30.03,South,184,0.0,0.0,43,0.00,,---,0.00,VWS V14.01,2013-04-04 14:14:00,
2013-04-04 10:19:00,40.8,19.5,30.03,WSW,248,0.0,0.0,42,0.00,,---,0.00,VWS V14.01,2013-04-04 14:19:00,
2013-04-04 10:24:00,41.2,20.4,30.03,WSW,253,0.0,0.0,43,0.00,,---,0.00,VWS V14.01,2013-04-04 14:24:00,
2013-04-04 10:29:00,41.3,20.0,30.02,WNW,292,0.0,0.0,42,0.00,,---,0.00,VWS V14.01,2013-04-04 14:29:00,
2013-04-04 10:34:00,41.6,20.8,30.02,SW,236,0.0,0.0,43,0.00,,---,0.00,VWS V14.01,2013-04-04 14:34:00,
2013-04-04 10:39:00,41.9,21.0,30.02,SW,231,0.0,0.0,43,0.00,,---,0.00,VWS V14.01,2013-04-04 14:39:00,
2013-04-04 10:44:00,42.2,21.3,30.02,WSW,244,0.0,0.0,43,0.00,,---,0.00,VWS V14.01,2013-04-04 14:44:00,
2013-04-04 10:49:00,42.3,21.4,30.02,SSW,213,0.0,0.0,43,0.00,,---,0.00,VWS V14.01,2013-04-04 14:49:00,
2013-04-04 10:54:00,42.5,22.1,30.02,WSW,248,0.0,0.0,44,0.00,,---,0.00,VWS V14.01,2013-04-04 14:54:00,
2013-04-04 11:00:00,42.6,21.7,30.02,WSW,238,0.0,0.0,43,0.00,,---,0.00,VWS V14.01,2013-04-04 15:00:00,
2013-04-04 11:05:00,42.9,22.5,30.02,WSW,245,0.0,0.0,44,0.00,,---,0.00,VWS V14.01,2013-04-04 15:05:00,
2013-04-04 11:10:00,43.2,22.2,30.02,WSW,244,0.0,0.0,43,0.00,,---,0.00,VWS V14.01,2013-04-04 15:10:00,
2013-04-04 11:15:00,43.2,22.2,30.02,South,176,0.0,0.0,43,0.00,,---,0.00,VWS V14.01,2013-04-04 15:15:00,
2013-04-04 11:20:00,43.3,22.3,30.01,WSW,243,0.0,0.0,43,0.00,,---,0.00,VWS V14.01,2013-04-04 15:20:00,
2013-04-04 11:25:00,43.6,22.6,30.01,WNW,291,0.0,0.0,43,0.00,,---,0.00,VWS V14.01,2013-04-04 15:25:00,
2013-04-04 11:30:00,43.9,23.4,30.01,WSW,258,0.0,0.0,44,0.00,,---,0.00,VWS V14.01,2013-04-04 15:30:00,
2013-04-04 11:35:00,44.1,23.0,30.01,SW,226,0.0,0.0,43,0.00,,---,0.00,VWS V14.01,2013-04-04 15:35:00,
2013-04-04 11:40:00,44.2,22.6,30.01,WNW,286,0.0,0.0,42,0.00,,---,0.00,VWS V14.01,2013-04-04 15:40:00,
2013-04-04 11:46:00,44.3,23.2,30.00,WSW,246,0.0,0.0,43,0.00,,---,0.00,VWS V14.01,2013-04-04 15:46:00,
2013-04-04 11:51:00,44.6,22.9,30.00,West,261,0.0,0.0,42,0.00,,---,0.00,VWS V14.01,2013-04-04 15:51:00,
2013-04-04 11:56:00,45.1,23.4,30.00,SSW,203,0.0,0.0,42,0.00,,---,0.00,VWS V14.01,2013-04-04 15:56:00,
2013-04-04 12:01:00,45.5,23.2,30.00,West,264,0.0,0.0,41,0.00,,---,0.00,VWS V14.01,2013-04-04 16:01:00,
2013-04-04 12:06:00,46.0,23.0,30.00,West,267,0.0,0.0,40,0.00,,---,0.00,VWS V14.01,2013-04-04 16:06:00,
2013-04-04 12:11:00,46.0,23.0,30.00,SW,221,0.0,0.0,40,0.00,,---,0.00,VWS V14.01,2013-04-04 16:11:00,
2013-04-04 12:17:00,46.2,23.2,30.00,West,275,0.0,0.0,40,0.00,,---,0.00,VWS V14.01,2013-04-04 16:17:00,
2013-04-04 12:22:00,46.4,23.4,29.99,WSW,255,0.0,0.0,40,0.00,,---,0.00,VWS V14.01,2013-04-04 16:22:00,
2013-04-04 12:27:00,46.5,23.5,29.99,WNW,292,0.0,0.0,40,0.00,,---,0.00,VWS V14.01,2013-04-04 16:27:00,
2013-04-04 12:32:00,46.8,23.2,29.99,WNW,286,0.0,0.0,39,0.00,,---,0.00,VWS V14.01,2013-04-04 16:32:00,
2013-04-04 12:37:00,46.8,24.4,29.99,West,261,0.0,0.0,41,0.00,,---,0.00,VWS V14.01,2013-04-04 16:37:00,
2013-04-04 12:42:00,47.1,23.4,29.99,WNW,282,0.0,0.0,39,0.00,,---,0.00,VWS V14.01,2013-04-04 16:42:00,
2013-04-04 12:47:00,47.1,23.4,29.99,WSW,255,0.0,0.0,39,0.00,,---,0.00,VWS V14.01,2013-04-04 16:47:00,
2013-04-04 12:52:00,46.7,23.1,29.99,NW,311,0.0,0.0,39,0.00,,---,0.00,VWS V14.01,2013-04-04 16:52:00,
2013-04-04 12:57:00,46.5,22.9,29.99,NNW,331,0.0,0.0,39,0.00,,---,0.00,VWS V14.01,2013-04-04 16:57:00,
2013-04-04 13:02:00,46.5,22.9,29.99,West,277,0.0,0.0,39,0.00,,---,0.00,VWS V14.01,2013-04-04 17:02:00,
2013-04-04 13:07:00,46.8,23.8,29.98,NW,308,0.0,0.0,40,0.00,,---,0.00,VWS V14.01,2013-04-04 17:07:00,
2013-04-04 13:12:00,46.7,23.7,29.98,NW,323,0.0,0.0,40,0.00,,---,0.00,VWS V14.01,2013-04-04 17:12:00,
2013-04-04 13:17:00,46.7,23.7,29.98,West,277,0.0,0.0,40,0.00,,---,0.00,VWS V14.01,2013-04-04 17:17:00,
2013-04-04 13:22:00,47.1,23.4,29.98,WNW,291,0.0,0.0,39,0.00,,---,0.00,VWS V14.01,2013-04-04 17:22:00,
2013-04-04 13:27:00,46.7,23.1,29.97,West,277,0.0,0.0,39,0.00,,---,0.00,VWS V14.01,2013-04-04 17:27:00,
2013-04-04 13:32:00,46.1,23.1,29.98,NNW,327,0.0,0.0,40,0.00,,---,0.00,VWS V14.01,2013-04-04 17:32:00,
2013-04-04 13:38:00,45.8,24.6,29.98,WSW,252,0.0,0.0,43,0.00,,---,0.00,VWS V14.01,2013-04-04 17:38:00,
2013-04-04 13:43:00,46.0,23.6,29.97,WSW,258,0.0,0.0,41,0.00,,---,0.00,VWS V14.01,2013-04-04 17:43:00,
2013-04-04 13:48:00,45.5,23.8,29.97,WSW,256,0.0,0.0,42,0.00,,---,0.00,VWS V14.01,2013-04-04 17:48:00,
2013-04-04 13:53:00,45.4,23.7,29.97,West,279,0.0,0.0,42,0.00,,---,0.00,VWS V14.01,2013-04-04 17:53:00,
2013-04-04 13:58:00,44.9,24.3,29.97,West,267,0.0,0.0,44,0.00,,---,0.00,VWS V14.01,2013-04-04 17:58:00,
2013-04-04 14:03:00,44.5,24.5,29.97,West,266,0.0,0.0,45,0.00,,---,0.00,VWS V14.01,2013-04-04 18:03:00,
2013-04-04 14:08:00,44.1,24.1,29.97,WSW,239,0.0,0.0,45,0.00,,---,0.00,VWS V14.01,2013-04-04 18:08:00,
2013-04-04 14:13:00,43.8,24.4,29.96,WSW,258,0.0,0.0,46,0.00,,---,0.00,VWS V14.01,2013-04-04 18:13:00,
2013-04-04 14:18:00,43.5,24.6,29.96,WNW,289,0.0,0.0,47,0.00,,---,0.00,VWS V14.01,2013-04-04 18:18:00,
2013-04-04 14:23:00,43.3,24.9,29.96,WSW,257,0.0,0.0,48,0.00,,---,0.00,VWS V14.01,2013-04-04 18:23:00,
2013-04-04 14:28:00,43.3,24.4,29.96,WSW,252,0.0,0.0,47,0.00,,---,0.00,VWS V14.01,2013-04-04 18:28:00,
2013-04-04 14:33:00,43.2,24.9,29.96,West,277,0.0,0.0,48,0.00,,---,0.00,VWS V14.01,2013-04-04 18:33:00,
2013-04-04 14:38:00,43.2,24.9,29.96,SW,236,0.0,0.0,48,0.00,,---,0.00,VWS V14.01,2013-04-04 18:38:00,
2013-04-04 14:43:00,43.1,24.3,29.96,West,263,0.0,0.0,47,0.00,,---,0.00,VWS V14.01,2013-04-04 18:43:00,
2013-04-04 14:48:00,42.9,24.6,29.96,WNW,291,0.0,0.0,48,0.00,,---,0.00,VWS V14.01,2013-04-04 18:48:00,
2013-04-04 14:53:00,42.8,25.5,29.96,WNW,294,0.0,0.0,50,0.00,,---,0.00,VWS V14.01,2013-04-04 18:53:00,
2013-04-04 14:58:00,42.3,25.5,29.96,WSW,242,0.0,0.0,51,0.00,,---,0.00,VWS V14.01,2013-04-04 18:58:00,
2013-04-04 15:04:00,41.9,26.0,29.96,WNW,284,0.0,0.0,53,0.00,,---,0.00,VWS V14.01,2013-04-04 19:04:00,
2013-04-04 15:09:00,41.5,26.5,29.96,WNW,303,0.0,0.0,55,0.00,,---,0.00,VWS V14.01,2013-04-04 19:09:00,
2013-04-04 15:14:00,40.9,28.5,29.97,NW,319,0.0,0.0,61,0.00,,---,0.00,VWS V14.01,2013-04-04 19:14:00,
2013-04-04 15:19:00,39.8,29.4,29.97,North,5,0.0,0.0,66,0.00,,---,0.00,VWS V14.01,2013-04-04 19:19:00,
2013-04-04 15:24:00,38.8,30.6,29.97,NW,311,0.0,0.0,72,0.00,,---,0.00,VWS V14.01,2013-04-04 19:24:00,
2013-04-04 15:29:00,37.9,30.7,29.97,WSW,244,0.0,0.0,75,0.00,,---,0.00,VWS V14.01,2013-04-04 19:29:00,
2013-04-04 15:34:00,37.6,31.1,29.97,NW,317,0.0,0.0,77,0.00,,---,0.00,VWS V14.01,2013-04-04 19:34:00,
2013-04-04 15:39:00,37.2,31.3,29.97,NW,318,0.0,0.0,79,0.00,,---,0.00,VWS V14.01,2013-04-04 19:39:00,
2013-04-04 15:44:00,36.8,31.5,29.97,WNW,284,0.0,0.0,81,0.01,,---,0.01,VWS V14.01,2013-04-04 19:44:00,
2013-04-04 15:49:00,36.5,31.5,29.97,NNW,327,0.0,0.0,82,0.01,,---,0.01,VWS V14.01,2013-04-04 19:49:00,
2013-04-04 15:54:00,36.2,31.8,29.97,NNW,342,0.0,0.0,84,0.01,,---,0.01,VWS V14.01,2013-04-04 19:54:00,
2013-04-04 15:59:00,35.9,32.1,29.97,West,259,0.0,0.0,86,0.02,,---,0.02,VWS V14.01,2013-04-04 19:59:00,
2013-04-04 16:04:00,35.6,32.4,29.96,West,280,0.0,0.0,88,0.02,,---,0.02,VWS V14.01,2013-04-04 20:04:00,
2013-04-04 16:10:00,35.5,32.6,29.96,SW,234,0.0,0.0,89,0.03,,---,0.03,VWS V14.01,2013-04-04 20:10:00,
2013-04-04 16:15:00,35.3,32.4,29.96,West,275,0.0,0.0,89,0.03,,---,0.03,VWS V14.01,2013-04-04 20:15:00,
2013-04-04 16:20:00,35.0,32.1,29.96,West,269,0.0,0.0,89,0.04,,---,0.04,VWS V14.01,2013-04-04 20:20:00,
2013-04-04 16:25:00,34.7,32.1,29.96,NW,320,0.0,0.0,90,0.05,,---,0.05,VWS V14.01,2013-04-04 20:25:00,
2013-04-04 16:30:00,34.6,32.2,29.96,SSW,199,0.0,0.0,91,0.05,,---,0.05,VWS V14.01,2013-04-04 20:30:00,
2013-04-04 16:35:00,34.4,32.3,29.96,West,271,0.0,0.0,92,0.05,,---,0.05,VWS V14.01,2013-04-04 20:35:00,
2013-04-04 16:40:00,34.3,32.2,29.96,WSW,250,0.0,0.0,92,0.06,,---,0.06,VWS V14.01,2013-04-04 20:40:00,
2013-04-04 16:45:00,34.4,32.3,29.96,SW,230,0.0,0.0,92,0.06,,---,0.06,VWS V14.01,2013-04-04 20:45:00,
2013-04-04 16:50:00,34.6,32.8,29.95,WSW,244,0.0,0.0,93,0.05,,---,0.06,VWS V14.01,2013-04-04 20:50:00,
2013-04-04 16:55:00,34.7,32.9,29.95,West,259,0.0,0.0,93,0.05,,---,0.06,VWS V14.01,2013-04-04 20:55:00,
2013-04-04 17:00:00,34.7,32.9,29.95,NW,304,0.0,0.0,93,0.04,,---,0.06,VWS V14.01,2013-04-04 21:00:00,
2013-04-04 17:05:00,35.0,33.2,29.95,WNW,291,0.0,0.0,93,0.04,,---,0.06,VWS V14.01,2013-04-04 21:05:00,
2013-04-04 17:10:00,35.2,33.4,29.95,West,267,0.0,0.0,93,0.03,,---,0.06,VWS V14.01,2013-04-04 21:10:00,
2013-04-04 17:15:00,35.3,33.5,29.95,WNW,288,0.0,0.0,93,0.03,,---,0.06,VWS V14.01,2013-04-04 21:15:00,
2013-04-04 17:20:00,35.6,33.8,29.95,WSW,250,0.0,0.0,93,0.02,,---,0.06,VWS V14.01,2013-04-04 21:20:00,
2013-04-04 17:25:00,35.8,34.0,29.95,WSW,244,0.0,0.0,93,0.02,,---,0.06,VWS V14.01,2013-04-04 21:25:00,
2013-04-04 17:30:00,36.0,33.9,29.95,West,275,0.0,0.0,92,0.01,,---,0.06,VWS V14.01,2013-04-04 21:30:00,
2013-04-04 17:35:00,36.5,34.4,29.95,SW,230,0.0,0.0,92,0.01,,---,0.06,VWS V14.01,2013-04-04 21:35:00,
2013-04-04 17:40:00,36.9,34.8,29.95,West,259,0.0,0.0,92,0.00,,---,0.06,VWS V14.01,2013-04-04 21:40:00,
2013-04-04 17:45:00,37.0,34.6,29.95,West,259,0.0,0.0,91,0.00,,---,0.06,VWS V14.01,2013-04-04 21:45:00,
2013-04-04 17:50:00,37.0,34.3,29.96,NW,309,0.0,0.0,90,0.00,,---,0.06,VWS V14.01,2013-04-04 21:50:00,
2013-04-04 17:55:00,37.2,34.5,29.96,SW,236,0.0,0.0,90,0.00,,---,0.06,VWS V14.01,2013-04-04 21:55:00,
2013-04-04 18:01:00,37.3,34.4,29.96,SW,221,0.0,0.0,89,0.00,,---,0.06,VWS V14.01,2013-04-04 22:01:00,
2013-04-04 18:06:00,37.6,34.7,29.96,SW,223,0.0,0.0,89,0.00,,---,0.06,VWS V14.01,2013-04-04 22:06:00,
2013-04-04 18:11:00,38.2,34.7,29.96,SW,216,0.0,0.0,87,0.00,,---,0.06,VWS V14.01,2013-04-04 22:11:00,
2013-04-04 18:16:00,38.5,35.0,29.96,WSW,247,0.0,0.0,87,0.00,,---,0.06,VWS V14.01,2013-04-04 22:16:00,
2013-04-04 18:21:00,38.2,34.4,29.97,SSW,207,0.0,0.0,86,0.00,,---,0.06,VWS V14.01,2013-04-04 22:21:00,
2013-04-04 18:26:00,38.0,34.2,29.97,West,275,0.0,0.0,86,0.00,,---,0.06,VWS V14.01,2013-04-04 22:26:00,
2013-04-04 18:31:00,38.0,34.2,29.96,SW,223,0.0,0.0,86,0.00,,---,0.06,VWS V14.01,2013-04-04 22:31:00,
2013-04-04 18:36:00,38.0,34.2,29.96,West,261,0.0,0.0,86,0.00,,---,0.06,VWS V14.01,2013-04-04 22:36:00,
2013-04-04 18:41:00,37.9,34.1,29.97,SW,230,0.0,0.0,86,0.00,,---,0.06,VWS V14.01,2013-04-04 22:41:00,
2013-04-04 18:46:00,37.8,34.0,29.96,WSW,247,0.0,0.0,86,0.00,,---,0.06,VWS V14.01,2013-04-04 22:46:00,
2013-04-04 18:51:00,37.8,34.0,29.97,WSW,238,0.0,0.0,86,0.00,,---,0.06,VWS V14.01,2013-04-04 22:51:00,
2013-04-04 18:56:00,37.8,34.0,29.97,WSW,244,0.0,0.0,86,0.00,,---,0.06,VWS V14.01,2013-04-04 22:56:00,
2013-04-04 19:01:00,37.8,34.3,29.97,WSW,248,0.0,0.0,87,0.00,,---,0.06,VWS V14.01,2013-04-04 23:01:00,
2013-04-04 19:07:00,37.8,34.3,29.97,SW,214,0.0,0.0,87,0.00,,---,0.06,VWS V14.01,2013-04-04 23:07:00,
2013-04-04 19:12:00,37.8,34.0,29.97,SW,214,0.0,0.0,86,0.00,,---,0.06,VWS V14.01,2013-04-04 23:12:00,
2013-04-04 19:17:00,37.6,33.8,29.97,SW,217,0.0,0.0,86,0.00,,---,0.06,VWS V14.01,2013-04-04 23:17:00,
2013-04-04 19:22:00,37.6,33.8,29.97,SW,217,0.0,0.0,86,0.00,,---,0.06,VWS V14.01,2013-04-04 23:22:00,
2013-04-04 19:27:00,37.6,33.8,29.97,SW,218,0.0,0.0,86,0.00,,---,0.06,VWS V14.01,2013-04-04 23:27:00,
2013-04-04 19:32:00,37.5,33.7,29.97,SW,217,0.0,0.0,86,0.00,,---,0.06,VWS V14.01,2013-04-04 23:32:00,
2013-04-04 19:37:00,37.3,33.8,29.97,SW,217,0.0,0.0,87,0.00,,---,0.06,VWS V14.01,2013-04-04 23:37:00,
2013-04-04 19:42:00,37.2,33.7,29.97,SW,217,0.0,0.0,87,0.00,,---,0.06,VWS V14.01,2013-04-04 23:42:00,
2013-04-04 19:47:00,37.2,33.7,29.97,SSW,194,0.0,0.0,87,0.00,,---,0.06,VWS V14.01,2013-04-04 23:47:00,
2013-04-04 19:52:00,37.0,33.5,29.97,SSW,194,0.0,0.0,87,0.00,,---,0.06,VWS V14.01,2013-04-04 23:52:00,
2013-04-04 19:57:00,36.9,33.7,29.97,SSW,194,0.0,0.0,88,0.00,,---,0.06,VWS V14.01,2013-04-04 23:57:00,
2013-04-04 20:02:00,36.8,33.3,29.97,SSW,194,0.0,0.0,87,0.00,,---,0.06,VWS V14.01,2013-04-05 00:02:00,
2013-04-04 20:07:00,36.8,33.6,29.98,SSW,194,0.0,0.0,88,0.00,,---,0.06,VWS V14.01,2013-04-05 00:07:00,
2013-04-04 20:12:00,36.6,33.4,29.98,SSW,194,0.0,0.0,88,0.00,,---,0.06,VWS V14.01,2013-04-05 00:12:00,
2013-04-04 20:17:00,36.5,33.6,29.98,SSW,194,0.0,0.0,89,0.00,,---,0.06,VWS V14.01,2013-04-05 00:17:00,
2013-04-04 20:22:00,36.3,33.4,29.98,SSW,194,0.0,0.0,89,0.00,,---,0.06,VWS V14.01,2013-04-05 00:22:00,
2013-04-04 20:27:00,36.2,33.3,29.98,SSW,194,0.0,0.0,89,0.00,,---,0.06,VWS V14.01,2013-04-05 00:27:00,
2013-04-04 20:32:00,36.0,33.1,29.98,SSW,194,0.0,0.0,89,0.00,,---,0.06,VWS V14.01,2013-04-05 00:32:00,
2013-04-04 20:37:00,35.9,33.0,29.98,SSW,194,0.0,0.0,89,0.00,,---,0.06,VWS V14.01,2013-04-05 00:37:00,
2013-04-04 20:42:00,35.8,32.9,29.98,SSW,194,0.0,0.0,89,0.00,,---,0.06,VWS V14.01,2013-04-05 00:42:00,
2013-04-04 20:47:00,35.8,33.2,29.98,SSW,194,0.0,0.0,90,0.00,,---,0.06,VWS V14.01,2013-04-05 00:47:00,
2013-04-04 20:52:00,35.6,33.0,29.99,SSW,194,0.0,0.0,90,0.00,,---,0.06,VWS V14.01,2013-04-05 00:52:00,
2013-04-04 20:57:00,35.5,32.9,29.99,SSW,194,0.0,0.0,90,0.00,,---,0.06,VWS V14.01,2013-04-05 00:57:00,
2013-04-04 21:02:00,35.3,32.7,29.99,SSW,194,0.0,0.0,90,0.00,,---,0.06,VWS V14.01,2013-04-05 01:02:00,
2013-04-04 21:07:00,35.3,32.7,29.99,SSW,194,0.0,0.0,90,0.00,,---,0.06,VWS V14.01,2013-04-05 01:07:00,
2013-04-04 21:12:00,35.2,32.8,29.99,SSW,194,0.0,0.0,91,0.00,,---,0.06,VWS V14.01,2013-04-05 01:12:00,
2013-04-04 21:17:00,35.0,32.6,29.99,SSW,194,0.0,0.0,91,0.00,,---,0.06,VWS V14.01,2013-04-05 01:17:00,
2013-04-04 21:23:00,35.0,32.6,30.00,SSW,194,0.0,0.0,91,0.00,,---,0.06,VWS V14.01,2013-04-05 01:23:00,
2013-04-04 21:28:00,34.9,32.5,30.00,SSW,194,0.0,0.0,91,0.00,,---,0.06,VWS V14.01,2013-04-05 01:28:00,
2013-04-04 21:33:00,34.9,32.5,30.00,SSW,194,0.0,0.0,91,0.00,,---,0.06,VWS V14.01,2013-04-05 01:33:00,
2013-04-04 21:38:00,34.7,32.6,30.00,SSW,194,0.0,0.0,92,0.00,,---,0.06,VWS V14.01,2013-04-05 01:38:00,
2013-04-04 21:43:00,34.7,32.6,30.01,SSW,194,0.0,0.0,92,0.00,,---,0.06,VWS V14.01,2013-04-05 01:43:00,
2013-04-04 21:48:00,34.4,32.3,30.01,SSW,194,0.0,0.0,92,0.00,,---,0.06,VWS V14.01,2013-04-05 01:48:00,
2013-04-04 21:53:00,34.4,32.3,30.01,SSW,194,0.0,0.0,92,0.00,,---,0.06,VWS V14.01,2013-04-05 01:53:00,
2013-04-04 21:58:00,34.1,32.0,30.01,SSW,194,0.0,0.0,92,0.00,,---,0.06,VWS V14.01,2013-04-05 01:58:00,
2013-04-04 22:03:00,34.1,32.0,30.01,SSW,194,0.0,0.0,92,0.00,,---,0.06,VWS V14.01,2013-04-05 02:03:00,
2013-04-04 22:08:00,34.3,32.5,30.02,South,186,0.0,0.0,93,0.00,,---,0.06,VWS V14.01,2013-04-05 02:08:00,
2013-04-04 22:13:00,34.4,32.9,30.02,North,9,0.0,0.0,94,0.00,,---,0.06,VWS V14.01,2013-04-05 02:13:00,
2013-04-04 22:18:00,34.7,33.2,30.02,NNE,13,0.0,0.0,94,0.00,,---,0.06,VWS V14.01,2013-04-05 02:18:00,
2013-04-04 22:23:00,35.0,33.2,30.02,NNE,20,0.0,0.0,93,0.00,,---,0.06,VWS V14.01,2013-04-05 02:23:00,
2013-04-04 22:28:00,35.2,33.1,30.02,NNE,28,0.0,0.0,92,0.00,,---,0.06,VWS V14.01,2013-04-05 02:28:00,
2013-04-04 22:33:00,35.3,32.4,30.02,NNE,32,0.0,0.0,89,0.00,,---,0.06,VWS V14.01,2013-04-05 02:33:00,
2013-04-04 22:38:00,35.5,32.0,30.03,NNE,13,0.0,0.0,87,0.00,,---,0.06,VWS V14.01,2013-04-05 02:38:00,
2013-04-04 22:43:00,35.6,31.5,30.02,NNE,26,0.0,0.0,85,0.00,,---,0.06,VWS V14.01,2013-04-05 02:43:00,
2013-04-04 22:48:00,35.8,31.1,30.03,NE,49,0.0,0.0,83,0.00,,---,0.06,VWS V14.01,2013-04-05 02:48:00,
2013-04-04 22:53:00,35.8,30.9,30.03,NNE,22,0.0,0.0,82,0.00,,---,0.06,VWS V14.01,2013-04-05 02:53:00,
2013-04-04 22:58:00,35.8,30.9,30.03,NNE,28,0.0,0.0,82,0.00,,---,0.06,VWS V14.01,2013-04-05 02:58:00,
2013-04-04 23:03:00,35.6,30.7,30.03,North,9,0.0,0.0,82,0.00,,---,0.06,VWS V14.01,2013-04-05 03:03:00,
2013-04-04 23:08:00,35.6,30.4,30.03,NNE,24,0.0,0.0,81,0.00,,---,0.06,VWS V14.01,2013-04-05 03:08:00,
2013-04-04 23:13:00,35.5,30.0,30.04,NNE,16,0.0,0.0,80,0.00,,---,0.06,VWS V14.01,2013-04-05 03:13:00,
2013-04-04 23:18:00,35.3,29.8,30.04,North,10,0.0,0.0,80,0.00,,---,0.06,VWS V14.01,2013-04-05 03:18:00,
2013-04-04 23:23:00,35.3,29.5,30.04,NNW,348,0.0,0.0,79,0.00,,---,0.06,VWS V14.01,2013-04-05 03:23:00,
2013-04-04 23:28:00,35.3,29.1,30.04,North,360,0.0,0.0,78,0.00,,---,0.06,VWS V14.01,2013-04-05 03:28:00,
2013-04-04 23:33:00,35.3,29.1,30.04,NNE,19,0.0,0.0,78,0.00,,---,0.06,VWS V14.01,2013-04-05 03:33:00,
2013-04-04 23:38:00,35.3,28.8,30.03,NNE,15,0.0,0.0,77,0.00,,---,0.06,VWS V14.01,2013-04-05 03:38:00,
2013-04-04 23:43:00,35.2,28.7,30.03,NNE,14,0.0,0.0,77,0.00,,---,0.06,VWS V14.01,2013-04-05 03:43:00,
2013-04-04 23:48:00,35.2,28.7,30.03,North,5,0.0,0.0,77,0.00,,---,0.06,VWS V14.01,2013-04-05 03:48:00,
2013-04-04 23:53:00,35.2,28.4,30.03,NNW,348,0.0,0.0,76,0.00,,---,0.06,VWS V14.01,2013-04-05 03:53:00,
2013-04-04 23:59:00,35.0,28.2,30.04,NNE,14,0.0,0.0,76,0.00,,---,0.06,VWS V14.01,2013-04-05 03:59:00,